Retour au catalogue

YINHE-8

ActifCommunicationsSSO
NORAD 57424·PAYLOAD·🇨🇳 China
Ce nom de satellite n'a pas encore été confirmé par des sources officielles.

Lancé Jul 23, 2023 depuis Taiyuan Satellite Launch Center

Loading…

Prochains Passages (prochaines 24 heures)

TLE

FraisSource: Space-Track

Époque: Sep 14, 2026, 21:58 UTC

1 57424U 23104A   26257.91595065  .00010167  00000-0  28665-3 0  9999
2 57424  97.2618 324.9852 0007996 144.1413 216.0369 15.36575452175811

Suivez YINHE-8 en temps réel avec AllMySat

Download on the App Store